Location: Cormont
(50.5693°N, 1.7416°E)
Time: 02:49:51
(UTC+00:00)

STARLINK-81 - Pass Details

Date: 21 October 2019
Orbit: 548 x 551 km, 53.0° (Epoch: 16 November)

Event Time Altitude Azimuth Distance (km) Brightness Sun altitude
Rises 19:19:45 0° 286° (WNW) 2,720 8.6 -24.4°
Reaches altitude 10° 19:22:00 10° 288° (WNW) 1,826 7.3 -24.8°
Enters shadow 19:25:27 58° 311° (NW) 645 4.1 -25.3°
